Regional Weather Roundup
Issued by NWS

Home | Current Version | Previous Version | Text Only | Print | Product List | Glossary On
Versions: 1 2 3 4 5 6 7 8 9 10 11 12 13 14 15 16 17 18 19 20 21 22 23 24 25 26 27 28 29 30 31 32 33 34 35 36 37 38 39 40 41 42 43 44 45 46 47 48 49 50
000
ASUS43 KLSX 252159
RWRMO

WEATHER SUMMARY FOR MISSOURI
NATIONAL WEATHER SERVICE SPRINGFIELD MO
400 PM CST TUE NOV 25 2014

NOTE: "FAIR" INDICATES FEW OR NO CLOUDS BELOW 12,000 FEET WITH NO
       SIGNIFICANT WEATHER AND/OR OBSTRUCTIONS TO VISIBILITY.
       CURRENT SKY AND/OR WEATHER CONDITIONS ARE NOT AVAILABLE FOR
       CHILLICOTHE AND FARMINGTON.

MOZ001>031-035>038-043-044-053-054-252300-
...NORTHERN AND WESTERN MISSOURI...

CITY           SKY/WX    TMP DP  RH WIND       PRES   REMARKS
KANSAS CTY INT PTCLDY    40  18  41 S10       30.09F
KANSAS C DTWN  CLEAR     43  16  33 S8        30.11F
LEE`S SUMMIT   CLEAR     42  14  32 S3        30.11F
ST JOSEPH      CLEAR     40  19  43 S9        30.08F
CHILLICOTHE      N/A     39  15  37 S7        30.12F
KIRKSVILLE     CLEAR     35  17  47 SW7       30.12F WCI  29

$$
MOZ066>068-077>081-088>096-101>105-252300-
...SOUTHWEST MISSOURI...

CITY           SKY/WX    TMP DP  RH WIND       PRES   REMARKS
SPRINGFIELD    CLEAR     43  15  32 W6        30.13F
JOPLIN         CLEAR     44  19  36 W7        30.15F

$$
MOZ032>034-039>042-045>050-055>058-069>072-252300-
...CENTRAL MISSOURI...

CITY           SKY/WX    TMP DP  RH WIND       PRES   REMARKS
COLUMBIA       CLEAR     39  15  37 SW7       30.14F
JEFFERSON CITY CLEAR     41  15  35 W6        30.15F
ROLLA          CLEAR     40  18  41 W6        30.11S
SEDALIA        CLEAR     40  16  37 SW8       30.14F
WARRENSBURG    CLEAR     41  10  28 SW7       30.13S
OSAGE BEACH    CLEAR     43  14  31 NW3       30.14S

$$
MOZ051-052-059>065-252300-
...EAST CENTRAL MISSOURI...

CITY           SKY/WX    TMP DP  RH WIND       PRES   REMARKS
ST LOUIS INTL  PTCLDY    41  22  46 W7        30.15S
SPIRIT OF STL  CLEAR     39  22  50 W7        30.15S
ST CHARLES     CLEAR     39  23  52 NW7       30.15S

$$
MOZ072>076-082>087-097>100-106>115-252300-
...SOUTH CENTRAL AND SOUTHEAST MISSOURI...

CITY           SKY/WX    TMP DP  RH WIND       PRES   REMARKS
CAPE GIRARDEAU CLEAR     44  24  45 CALM      30.16R
FARMINGTON     CLEAR     43  16  33 NW6       30.13S
POPLAR BLUFF   CLEAR     48  21  34 CALM      30.14S
WEST PLAINS    CLEAR     44  16  32 NW6       30.13S

$$


USA.gov is the U.S. government's official web portal to all federal, state and local government web resources and services.